www.pogodaiklimat.ru

Погода и климат >> Архив погоды >> Малайзия >> Labuan


ПОГОДА в Labuan

  • Прогноз погоды в Labuan
  • Монитор погоды в Labuan
  • Климат города

АРХИВ ПОГОДЫ в Labuan

Время (UTC), дата Ветер
(напр.,м/с)
 
Видим.   Явления Облачность Т
(С)
Тd
(С)
f
(%)
Тe
(С)
Тes
(С)
Комфортность P
(гПа)
Po
(гПа)
Тmin
(С)
Tmax
(С)
R
(мм)
R24
(мм)
S
(см)
09 12.10 СЗ 2 15 км осадки на расстоянии 9/3 400 м
[Cu Sc Ac trans Cs]
+30.0 +26.1 80 +45 +46 опасность
перегрева
1007.6 1004.3
12 12.10 С 1 20 км 9/1 360 м
[Cu Sc Ac lent Cs]
+28.6 +25.8 85 +43 +43 опасность
перегрева
1009.9 1006.6 +28.9
15 12.10 СВ 3 20 км гроза без осадков 9/3 360 м
[Cb cap Ac lent Cs]
+28.6 +26.1 86 +43 +43 опасность
перегрева
1010.9 1007.6
18 12.10 штиль 0 20 км зарница {гроза} 9/1 360 м
[Cb cap Ac As Cs]
+27.5 +25.9 91 +41 +41 опасность
перегрева
1009.7 1006.4
21 12.10 З 1 20 км 9/1 360 м
[Cu Sc Ac lent Cs]
+26.0 +25.2 95 +37 +37 очень
душно
1009.3 1006.0
00 13.10 ЮЗ 2 30 км 9/5 360 м
[Cu Sc Ac lent Cs]
+28.4 +26.4 89 +43 +45 опасность
перегрева
1010.9 1007.6 +25.9
03 13.10 ЮЗ 2 30 км 9/6 300 м
[Cu Sc Ac lent Cs]
+30.4 +26.3 79 +46 +51 опасность
перегрева
1011.7 1008.4
06 13.10 З 4 30 км 9/5 300 м
[Cu Sc Ac lent Cs]
+31.0 +26.8 78 +48 +52 опасность
перегрева
1008.2 1004.9
09 13.10 З 1 28 км {гроза} 9/6 300 м
[Cb cap Ac As Cs]
+28.2 +25.8 87 +42 +43 опасность
перегрева
1008.9 1005.6
12 13.10 В 2 2000 м гроза, ливневой дождь 10/8 300 м
[Cb cap As op Cs]
+26.7 +25.6 94 +39 +39 очень
душно
1011.9 1008.6 +31.4 5
15 13.10 штиль 0 15 км в посл. час гроза {дождь} 10/5 360 м
[Cb cap Ac As Cs]
+24.3 +23.9 98 +33 +33 очень
душно
1012.0 1008.6
18 13.10 ЮЗ 2 20 км зарница {гроза} 9/5 360 м
[Cb cap Ac As Cs]
+25.5 +24.6 95 +36 +36 очень
душно
1010.1 1006.8 4
21 13.10 ЮЗ 2 20 км 9/1 360 м
[Cu Sc Ac trans Cs]
+25.4 +24.0 92 +35 +35 очень
душно
1010.5 1007.1
00 14.10 ЮЗ 2 30 км 10/3 360 м
[Cb cap Ac As Cs]
+26.3 +24.1 88 +37 +38 очень
душно
1012.7 1009.3 +23.4 6
03 14.10 ЮЗ 3 30 км 10/1 360 м
[Cu Sc Ac As Cs]
+27.6 +24.5 83 +39 +46 очень
душно
1012.8 1009.4
06 14.10 З 4 30 км 10/3 360 м
[Cu Sc Ac As Cs]
+28.6 +25.1 81 +41 +46 опасность
перегрева
1010.4 1007.1 0.2
09 14.10 З 4 30 км 10/5 300 м
[Cu Sc Ac As Cs]
+27.2 +24.6 86 +39 +39 очень
душно
1010.1 1006.8
12 14.10 ЮЗ 2 6000 м гроза, ливневой дождь 10/8 300 м
[Cb cap As op Cs]
+23.7 +23.4 98 +32 +32 очень
душно
1013.4 1010.0 +28.8 48
15 14.10 ЮЗ 1 8000 м слабый ливневой дождь, в посл. час гроза 10/6 300 м
[Cb cap As op Cs]
+23.2 +22.9 98 +32 +32 очень
душно
1014.0 1010.6
18 14.10 З 1 5000 м дождь 10/6 300 м
[Cu Sc As op Cs]
+23.4 +23.3 99 +33 +33 очень
душно
1012.7 1009.3 30
21 14.10 Ю 1 20 км 10/1 300 м
[Cu Sc Ac lent Cs]
+23.6 +22.7 95 +31 +31 очень
душно
1012.6 1009.2
00 15.10 Ю 2 28 км 9/1 360 м
[Cu Sc Ac lent Cs]
+25.4 +23.5 89 +34 +36 очень
душно
1013.8 1010.4 +23.2 78
03 15.10 ЮЗ 3 28 км 9/1 360 м
[Cu Sc Ac lent Cs]
+28.5 +23.8 76 +39 +48 очень
душно
1013.8 1010.4
06 15.10 З 2 28 км 9/1 360 м
[Cu Sc Ac trans Cs]
+30.2 +24.2 70 +42 +51 опасность
перегрева
1010.9 1007.6
09 15.10 З 1 15 км осадки на расстоянии 9/3 360 м
[Cu Sc Ac trans Cs]
+27.8 +24.4 82 +39 +40 очень
душно
1010.8 1007.5
12 15.10 Ю 1 20 км 9/1 360 м
[Cu Sc Ac As Cs]
+26.5 +24.6 89 +37 +37 очень
душно
1013.0 1009.6 +30.5
15 15.10 штиль 0 20 км 9/1 360 м
[Cu Sc Ac As Cs]
+26.1 +24.0 88 +36 +36 очень
душно
1013.7 1010.3
18 15.10 штиль 0 20 км 9/1 360 м
[Cu Sc Ac lent Ci sp]
+25.4 +24.4 94 +35 +35 очень
душно
1011.3 1007.9
21 15.10 штиль 0 20 км 9/1 360 м
[Cu Sc Ac lent Cs]
+24.9 +24.0 95 +34 +34 очень
душно
1011.7 1008.3
00 16.10 ЮВ 1 30 км 10/1 360 м
[Cu Sc Ac lent Cs]
+27.0 +25.3 90 +39 +41 очень
душно
1013.0 1009.7 +24.5
03 16.10 СВ 2 30 км 10/5 300 м
[Cu Sc As op Cs]
+28.0 +25.2 85 +41 +46 опасность
перегрева
1012.4 1009.1
06 16.10 ЮЗ 1 30 км 9/3 360 м
[Cu Sc Ac lent Cs]
+29.6 +25.0 76 +42 +50 опасность
перегрева
1009.6 1006.3
09 16.10 СЗ 2 30 км 9/1 360 м
[Cu Sc Ac lent Cs]
+30.0 +25.0 75 +43 +45 опасность
перегрева
1009.2 1005.9
12 16.10 СВ 2 20 км 9/1 360 м
[Cu Sc Ac lent Cs]
+27.5 +24.5 84 +39 +39 очень
душно
1011.2 1007.9 +30.2
15 16.10 В 1 20 км 9 баллов +26.1 +24.0 88 +36 +36 очень
душно
1012.4 1009.0
18 16.10 штиль 0 20 км 9/1 400 м
[Cu Sc Ac lent Ci sp]
+24.8 +24.0 95 +34 +34 очень
душно
1010.3 1006.9
21 16.10 штиль 0 20 км 9/1 360 м
[Cu Sc Ac lent Ci sp]
+24.4 +23.9 97 +33 +33 очень
душно
1010.1 1006.7
00 17.10 Ю 1 30 км 9/4 300 м
[Cu Sc Ac lent Ci sp]
+27.8 +25.6 88 +41 +42 опасность
перегрева
1011.4 1008.1 +24.3
03 17.10 ЮЗ 2 30 км 9/3 360 м
[Cu Sc Ac lent Ci sp]
+30.5 +25.0 73 +44 +51 опасность
перегрева
1011.5 1008.2
06 17.10 З 3 30 км 9/1 360 м
[Cb cap Ac lent Ci ing]
+31.0 +24.5 68 +43 +50 опасность
перегрева
1008.9 1005.6
09 17.10 З 3 30 км 9/1 360 м
[Cu Sc Ac lent Ci ing]
+29.8 +25.2 76 +43 +44 опасность
перегрева
1008.2 1004.9
12 17.10 штиль 0 20 км 9/1 360 м
[Cu Sc Ac lent Cs]
+27.1 +24.9 88 +39 +39 очень
душно
1009.9 1006.6 +31.4
15 17.10 ЮВ 2 20 км в посл. час гроза 9/3 360 м
[Cu Sc Ac lent Cs]
+26.2 +24.5 90 +37 +37 очень
душно
1011.1 1007.7
18 17.10 штиль 0 20 км в посл. час дождь 10/5 360 м
[Cu Sc As op Cs]
+25.0 +24.5 97 +35 +35 очень
душно
1009.4 1006.1 10
21 17.10 СЗ 1 9000 м слабый дождь 10/5 360 м
[Cu Sc As op Cs]
+23.9 +23.5 98 +32 +32 очень
душно
1010.0 1006.6
00 18.10 штиль 0 6000 м слабый дождь 10/6 360 м
[Cu Sc As op Cs]
+24.1 +23.8 98 +33 +34 очень
душно
1011.9 1008.5 +23.2 19
03 18.10 ЮЗ 2 28 км {дождь} 9/1 360 м
[Cu Sc Ac trans Cs]
+27.0 +24.3 85 +38 +47 очень
душно
1011.7 1008.3
06 18.10 З 4 28 км 9/4 360 м
[Cu Sc Ac trans Cs]
+28.8 +25.5 82 +42 +47 опасность
перегрева
1008.6 1005.3 1
09 18.10 З 5 15 км гроза без осадков 9/5 360 м
[Cb cap Ac As Ci sp]
+28.4 +24.4 79 +40 +40 очень
душно
1008.2 1004.9
12 18.10 ЮЗ 1 6000 м гроза, ливневой дождь 10/5 300 м
[Cb cap Ac As Cs]
+24.4 +24.0 98 +34 +34 очень
душно
1012.0 1008.6 +30.4 29
15 18.10 штиль 0 8000 м слабый дождь {гроза} 10/4 300 м
[Cu Sc As op Cs]
+24.5 +24.2 98 +34 +34 очень
душно
1013.0 1009.6
18 18.10 штиль 0 20 км {гроза, дождь} 10/3 300 м
[Cu Sc Ac As Cs]
+25.0 +24.6 98 +35 +35 очень
душно
1011.1 1007.7 3
21 18.10 ЮЗ 2 20 км 9/1 300 м
[Cu Sc Ac trans Cs]
+25.3 +23.7 91 +34 +34 очень
душно
1009.6 1006.2
00 19.10 ЮЗ 3 30 км 9/1 300 м
[Cu Sc Ac As Cs]
+27.0 +23.6 82 +37 +39 очень
душно
1012.7 1009.3 +23.8 33
03 19.10 Ю 3 30 км 9/1 300 м
[Cu Sc Ac lent Cs]
+28.8 +24.4 77 +40 +48 очень
душно
1012.4 1009.0
06 19.10 З 4 30 км 9/3 300 м
[Cu Sc Ac lent Ci sp]
+30.1 +24.2 71 +42 +46 опасность
перегрева
1009.2 1005.9 0.2

 

Местоположение метеостанции Labuan (Малайзия): широта 5.30 долгота 115.25 высота над уровнем моря 30 м.

В архиве по умолчанию представлена погода в Labuan за последнюю неделю. Архивные данные за месяц целиком и за предыдущие месяцы, начиная с января 2011 года, Вы можете получить, выбрав интересующий диапазон дат из раскрывающегося списка и нажав кнопку "Ввод!".


*Определитесь, кто Вы:
робот инопланетянин человек

Внимание! Время в таблицах - всемирное. Для получения местного времени необходимо прибавить поправку, которая в Labuan равна 8 ч.

Смотрите также архив погоды в соседних городах и на ближайших метеорологических станциях:

Погода в Brunei Airport (Бруней) (54 км)
Погода в Kota Kinabalu (Малайзия) (113 км)
Погода в Miri (Малайзия) (177 км)
Погода в Longbawan (Индонезия) (181 км)
Погода в Tawau (Малайзия) (313 км)
Погода в Sandakan (Малайзия) (318 км)
Погода в Tarakan (Индонезия) (337 км)
Погода в Bintulu (Малайзия) (339 км)
Погода в Tanjung Selor (Индонезия) (357 км)
Погода в Tanjung Redep (Индонезия) (430 км)

Пояснения к столбцам:

Ветер - указаны скорость ветра в м/с - средняя за 10 мин, порывы в срок и между сроками (в фигурных скобках) и направление, откуда дует ветер: С - северный, СВ - северо-восточный, В - восточный, ЮВ - юго-восточный, Ю - южный, ЮЗ - юго-западный, З - западный, СЗ - северо-западный.
Видимость - горизонтальная дальность видимости в метрах или километрах. При видимости от 1 до 10 км при отсутствии осадков обычно наблюдается дымка, при ухудшении видимости до 1 км и менее - туман. В сухую погоду видимость может ухудшаться дымом, пылью или мглою.
Явления - указаны атмосферные явления, наблюдавшиеся в срок или в последний час перед сроком; фигурными скобками обозначены явления, наблюдавшиеся между сроками (за 1-3 часа до срока); квадратными скобками обозначены град или гололедные отложения с указанием их диаметра в мм.
Облачность - указаны через наклонную черту общая и нижняя облачность в баллах и высота нижней границы облаков в метрах; квадратными скобками обозначены формы облаков: Ci - перистые, Cs - перисто-слоистые, Cc - перисто-кучевые, Ac - высококучевые, As - высокослоистые, Sc - слоисто-кучевые, Ns - слоисто-дождевые, Cu - кучевые, Cb - кучево-дождевые. Подробнее классификацию облаков см. в Атласе облаков (PDF).
T - Температура воздуха - температура, измеренная на высоте 2 м над землей.
Td - Температура точки росы - температура, при понижении до которой содержащийся в воздухе водяной пар достигнет насыщения.
f - Относительная влажность воздуха - влажноcть воздуха, измеренная на высоте 2 м над землей.
Te - Эффективная температура - температура, которую ощущает одетый по сезону человек в тени. Характеристика душности погоды. При расчете учитывается влияние влажности воздуха и скорости ветра на теплоощущения человека.
Tes - Эффективная температура на солнце - температура, которую ощущает человек, с поправкой на солнечный нагрев. Характеристика знойности погоды. Зависит от высоты солнца над горизонтом, облачности и скорости ветра. Ночью, в пасмурную погоду, а также при ветре 12 м/с и более поправка равна нулю.
P - Атмосферное давление - приведенное к уровню моря атмосферное давление.
Po - Атмосферное давление - измеренное на уровне метеостанции атмосферное давление.
Tmin - Минимальная температура - минимум температуры воздуха на высоте 2 м над землей.
Tmax - Максимальная температура - максимум температуры воздуха на высоте 2 м над землей.
R - Количество осадков - Количество выпавших осадков за период времени, мм. При наведении курсора мыши на число - период времени, за который выпало указанное количество осадков.
R24 - Количество осадков - Количество выпавших осадков за 24 часа, мм.
S - Снежный покров - Высота снежного покрова, см. При наведении курсора мыши на число - состояние снежного покрова и степень покрытия местности в баллах.